• Processing (Info)

  • MPEC 2021-A157 : COMET P/2016 J3 = P/2021 A3 (STEREO)

    The following Minor Planet Electronic Circular may be linked-to from your own Web pages, but must not otherwise be redistributed electronically.

    A form allowing access to any MPEC is at the bottom of this page.


    Read MPEC 2021-A156 Read MPEC 2021-A158


    M.P.E.C. 2021-A157                             Issued 2021 January 12, 21:02 UT
    
         The Minor Planet Electronic Circulars contain information on unusual
             minor planets and routine data on comets.  They are published
        on behalf of Division F of the International Astronomical Union by the
              Minor Planet Center, Smithsonian Astrophysical Observatory,
                              Cambridge, MA 02138, U.S.A.
    
                 Prepared using the Tamkin Foundation Computer Network
    
                                  MPC@CFA.HARVARD.EDU
                URL https://www.minorplanetcenter.net/    ISSN 1523-6714
    
                      COMET P/2016 J3 = P/2021 A3 (STEREO)                   
    
         This object was submitted on 2021 Jan. 6 by B. Bolin (I41) as a potential 
    new comet and was placed on the PCCP.  It was identified as a recovery of 
    P/2016 J3 by M. Meyer on 2021 Jan. 7 and prior images were found by the Mount 
    Lemmon Survey (G96).
    
    Observations:
        PK21A030  C2020 12 19.06243 21 06 19.72 +01 17 20.0                VEA157G96
        PK21A030  C2020 12 19.06668 21 06 20.23 +01 17 15.7          21.1 GVEA157G96
        PK21A030  C2020 12 19.07520 21 06 21.24 +01 17 09.7                VEA157G96
        PK21A030* C2021 01 04.09131 21 41 10.43 -03 30 56.2          19.1 RVEA157I41
        PK21A030  C2021 01 04.09374 21 41 10.71 -03 31 00.4          18.7 RVEA157I41
        PK21A030  C2021 01 04.09616 21 41 11.02 -03 31 04.1          19.0 RVEA157I41
        PK21A030  C2021 01 04.09859 21 41 11.35 -03 31 08.3          19.1 RVEA157I41
        PK21A030  C2021 01 05.07856021 43 19.01 -03 58 38.8          18.66rUEA157I41
        PK21A030  C2021 01 05.08101021 43 19.31 -03 58 43.0          18.68rUEA157I41
        PK21A030  C2021 01 05.08345021 43 19.64 -03 58 47.1          18.55rUEA157I41
        PK21A030  C2021 01 05.08590021 43 19.91 -03 58 51.9          18.67rUEA157I41
        PK21A030 HC2021 01 07.68700 21 48 48.84 -05 21 15.3                oEA157K88
        PK21A030 HC2021 01 07.69317 21 48 49.47 -05 21 29.0                oEA157K88
        PK21A030 HC2021 01 07.69440 21 48 49.68 -05 21 31.9          17.1 RoEA157K88
        PK21A030 KC2021 01 07.71059 21 48 51.59 -05 22 05.3          17.4 GVEA157A71
        PK21A030 KC2021 01 07.71695 21 48 52.38 -05 22 18.5          17.3 GVEA157A71
        PK21A030 |C2021 01 08.05532 21 49 33.58 -05 34 08.1                VEA157H06
        PK21A030 |C2021 01 08.05879 21 49 34.06 -05 34 15.1          14.7 TVEA157H06
        PK21A030 KC2021 01 08.69173 21 50 50.32 -05 57 13.5          16.9 NoEA157K88
        PK21A030 KC2021 01 08.70121 21 50 51.42 -05 57 34.6          17.1 NoEA157K88
        PK21A030 KC2021 01 08.72263 21 50 54.02 -05 58 24.3          15.8 TVEA157G06
        PK21A030 KC2021 01 08.72817 21 50 54.68 -05 58 35.1          15.8 TVEA157G06
        PK21A030 KC2021 01 08.73184 21 50 55.10 -05 58 41.6                VEA157204
        PK21A030 KC2021 01 08.74237 21 50 56.33 -05 59 05.4          18.0 TVEA157204
        PK21A030 HC2021 01 08.75308 21 50 57.59 -05 59 28.8                VEA157204
        PK21A030 OC2021 01 09.04759021 51 32.311-06 10 31.21         17.7 TVEA157V37
        PK21A030 OC2021 01 09.04822621 51 32.377-06 10 32.31         17.5 TVEA157V37
        PK21A030 OC2021 01 09.04884921 51 32.481-06 10 33.84         18.1 TVEA157V37
        PK21A030 OC2021 01 09.04947021 51 32.557-06 10 35.10         18.1 TVEA157V37
        PK21A030 pC2021 01 09.05672 21 51 33.37 -06 10 53.0                qEA157H06
        PK21A030 pC2021 01 09.05933 21 51 33.65 -06 10 58.5                qEA157H06
        PK21A030 pC2021 01 09.06194 21 51 34.00 -06 11 04.4          14.4 TqEA157H06
        PK21A030 KC2021 01 09.37242 21 52 10.35 -06 23 00.1                qEA157Q11
        PK21A030  C2021 01 09.37295 21 52 10.38 -06 23 01.7          14.1 TmEA157349
        PK21A030 KC2021 01 09.37859 21 52 11.05 -06 23 14.7          14.7 TqEA157Q11
        PK21A030  C2021 01 09.38172 21 52 11.36 -06 23 22.1                mEA157349
        PK21A030 KC2021 01 09.38561 21 52 11.85 -06 23 30.7                qEA157Q11
        PK21A030  C2021 01 09.39050 21 52 12.39 -06 23 42.3                mEA157349
        PK21A030  C2021 01 09.40176 21 52 13.66 -06 24 08.0                mEA157349
        PK21A030  C2021 01 09.40936 21 52 14.51 -06 24 26.2                mEA157349
        PK21A030  C2021 01 10.37582 21 54 04.57 -07 03 21.2          14.0 TmEA157349
        PK21A030  C2021 01 10.38266 21 54 05.33 -07 03 38.5                mEA157349
        PK21A030  C2021 01 10.38949 21 54 06.08 -07 03 55.5                mEA157349
        PK21A030  C2021 01 10.41311 21 54 08.66 -07 04 54.7                mEA157349
        PK21A030  C2021 01 10.41897 21 54 09.28 -07 05 09.4                mEA157349
        PK21A030 KC2021 01 10.70303 21 54 40.92 -07 17 10.2          16.4 TVEA157A71
        PK21A030 KC2021 01 10.70748 21 54 41.40 -07 17 21.9          16.4 TVEA157A71
        PK21A030 KC2021 01 10.71415 21 54 42.11 -07 17 38.8          16.6 TVEA157A71
        PK21A030 KC2021 01 10.72462 21 54 43.30 -07 18 05.7          17.2 TVEA157204
        PK21A030 KC2021 01 10.72539 21 54 43.33 -07 18 07.2                VEA157204
        PK21A030 KC2021 01 10.73119 21 54 43.94 -07 18 22.2                VEA157204
        PK21A030 KC2021 01 10.74698 21 54 45.65 -07 19 02.4          17.8 TVEA157204
        PK21A030 KC2021 01 10.74828 21 54 45.78 -07 19 06.1                VEA157204
        PK21A030 KC2021 01 11.69447 21 56 26.74 -08 00 54.2          16.1 TVEA157A71
        PK21A030 KC2021 01 11.69840 21 56 27.21 -08 01 05.5          16.2 TVEA157A71
        PK21A030 KC2021 01 11.70806 21 56 28.08 -08 01 32.9          16.3 TVEA157A71
        PK21A030  C2021 01 11.73298 21 56 30.71 -08 02 40.3          16.9 TVEA157A77
        PK21A030  C2021 01 11.73784 21 56 31.22 -08 02 54.1          16.9 TVEA157A77
        PK21A030  C2021 01 11.74271 21 56 31.70 -08 03 07.9          14.2 TVEA157A77
    
    Observer details:
    204 Schiaparelli Observatory.  Observers A. Aletti, L. Buzzi.  0.20-m f/4
        reflector + CCD, 0.84-m f/3.5 reflector + CCD.
    349 Ageo.  Observer K. Kadota.  0.25-m f/5.0 reflector + CCD.
    A71 Stixendorf.  Observers M. Jaeger, E. Prosperi, S. Prosperi.  Measurer M.
        Jaeger.  0.3-m f/4 reflector + CCD.
    A77 Observatoire Chante-Perdrix, Dauban.  Observer F. Kugel.  0.4-m f/2.8
        reflector + CCD.
    G06 Dordrecht, Sterrenburg.  Observer G. van Buitenen.  0.20-m f/8 Ritchey-
        Chretien + CCD + f/5.4 focal reducer.
    G96 Mt. Lemmon Survey.  Observer D. Rankin.  Measurers E. J. Christensen, B.
        Gray, D. Rankin, F. C. Shelly.  1.5-m reflector + 10K CCD.
    H06 iTelescope Observatory, Mayhill.  Observers H. Sato, K. Yoshimoto.  0.43-m
        f/6.8 astrograph + CCD + f/4.5 focal reducer, 0.43-m f/6.8 reflector + CCD
        + f/4.5 focal reducer.
    I41 Palomar Mountain--ZTF.  Observers B. T. Bolin, Z. T. F. Collaboration.
        Measurers B. T. Bolin, Z.-Y. Lin, F. J. Masci.  1.2-m f/2.4 Oschin Schmidt
        + CCD, 1.2-m f/2.4 Schmidt.
    K88 GINOP-KHK, Piszkesteto.  Observer K. Sarneczky.  0.60-m Schmidt + CCD.
    Q11 Shinshiro.  Observer T. Ikemura.  Measurer H. Sato.  0.35-m f/5 reflector
        + CCD.
    V37 McDonald Observatory-LCO ELP.  Observers M. S. P. Kelley, T. Lister, M.
        Knight, Q. Ye, J. Chatelain, E. Gomez, S. Greenstreet.  Measurer T.
        Lister.  1.0-m f/8.0 Ritchey-Chretien + CCD.
    
    Orbital elements:
        P/2016 J3 (STEREO)                                                          
    Epoch 2025 Oct. 12.0 TT = JDT 2460960.5                                         
    T 2025 Sept. 26.32524 TT                                Spoto                   
    q   0.5241671            (2000.0)            P               Q                  
    n   0.21121253     Peri.  210.70657     -0.27662678     -0.87903261             
    a   2.7924770      Node   257.81736     +0.94250237     -0.16932164             
    e   0.8122931      Incl.   23.40632     +0.18752842     -0.44568133             
    P   4.67                                                                        
    From 196 observations 2016 May 11-2021 Jan. 11, mean residual 0".4.             
                                                                                    
        P/2016 J3 (STEREO)                                                          
    Epoch 2020 Dec. 17.0 TT = JDT 2459200.5                                         
    T 2021 Jan. 25.38542 TT                                 Spoto                   
    q   0.5263802            (2000.0)            P               Q                  
    n   0.21091034     Peri.  210.73275     -0.27668061     -0.87919146             
    a   2.7951437      Node   257.79129     +0.94248139     -0.16948465             
    e   0.8116805      Incl.   23.38333     +0.18755445     -0.44530589             
    P   4.67                                                                        
    From 196 observations 2016 May 11-2021 Jan. 11, mean residual 0".4.             
                                                                                    
    Ephemeris:
    Date    TT    R. A. (2000) Decl.     Delta      r    Elong.  Phase   m1    m2
    2020 12 13    20 54 28.4 +02 27 23   1.0643  0.9927    57.8    57.1  19.1
    ...
    2020 12 28    21 25 27.0 -00 54 31   0.9099  0.7802    48.5    70.7  16.6
    ...
    2021 01 05    21 43 09.2 -03 56 14   0.8044  0.6751    42.9    82.8  15.1
    ...
    2021 01 11    21 55 13.5 -07 29 46   0.7178  0.6071    37.9    95.5  13.9
    2021 01 12    21 56 58.4 -08 14 49   0.7032  0.5972    37.0    98.0  13.8
    2021 01 13    21 58 36.6 -09 03 07   0.6886  0.5877    36.0   100.5  13.6
    ...
    2021 01 19    22 05 01.6 -15 11 36   0.6047  0.5437    29.3   117.8  12.6
    ...
    2021 01 27    21 58 26.5 -26 59 41   0.5228  0.5275    20.5   139.3  12.0
    ...
    2021 02 11    20 49 05.5 -47 11 32   0.5235  0.6308    34.6   117.2  13.6
    
    M. P. C. Staff               (C) Copyright 2021 MPC           M.P.E.C. 2021-A157
    


    Read MPEC 2021-A156 Read MPEC 2021-A158


    MPEC number:

    Enter an MPEC number in one of the following forms:

    • 1997-B01 (the full form)
    • J97B01 (the packed version of the full form)
    • B01 (the abbreviated form)